Temperature
3 4 4 4 4 4 4 4 4 4 4 6 6 5 6 7 7 7 7 7 7 7 7 7 6 6 6 6 6 5 5 5 5 5 5 5 5 5 5 5 5 5 5 5
3 3 3 3 4 4 4 4 4 4 5 6 6 6 6 6 6 6 7 8 8 7 7 7 7 6 6 6 6 5 5 5 5 5 5 5 5 5 5 5 5 5 5 5
3 3 3 4 4 4 3 3 3 4 5 5 5 4 5 6 7 7 7 8 8 7 7 7 7 7 6 6 6 6 5 5 5 5 5 5 5 5 5 4 4 4 4 4
2 3 4 6 6 4 4 4 3 4 4 4 4 6 7 7 7 7 7 7 8 8 7 7 7 6 6 6 6 6 5 5 5 5 5 5 4 4 4 4 4 4 4 4
2 2 3 5 5 4 4 4 4 4 4 5 5 5 7 8 8 8 8 8 8 8 7 7 7 6 6 6 6 5 5 5 5 5 4 4 4 4 4 4 3 3 3 3
2 2 3 6 6 5 5 5 6 4 4 4 4 4 5 8 8 8 8 7 7 7 7 7 7 6 6 6 6 5 5 5 5 4 4 4 4 3 3 3 3 3 3 3
2 2 3 4 5 5 5 6 7 6 6 5 4 6 7 8 8 7 7 7 7 7 7 7 6 6 6 6 6 6 5 5 4 4 4 4 3 3 3 3 3 3 3 3
2 2 3 4 4 4 6 7 7 7 7 6 6 7 7 7 7 7 7 7 7 7 7 7 6 6 6 6 6 5 5 5 4 4 4 3 3 3 3 2 2 2 2 2
3 4 5 5 5 7 7 6 7 7 7 7 6 6 6 6 6 6 7 7 6 6 6 6 6 6 6 6 5 5 5 4 4 4 3 3 3 2 2 2 2 2 2 2
1 2 4 5 6 7 7 6 7 7 7 6 6 6 6 6 6 6 6 6 6 6 6 6 6 6 6 5 5 5 5 4 4 3 3 3 3 2 2 2 2 2 2 2
1 3 4 5 7 7 7 7 6 6 6 6 5 5 5 5 5 6 6 6 6 6 6 6 6 5 5 5 5 5 4 4 4 3 3 3 3 2 2 2 2 1 1 1
4 4 4 5 7 6 6 6 6 5 5 5 5 5 5 5 5 5 5 5 5 5 5 5 5 5 5 5 4 4 4 4 4 3 3 3 2 2 2 1 1 1 1 1
5 5 5 5 5 5 5 5 5 5 4 4 4 4 4 4 5 5 5 5 5 5 5 5 5 5 5 5 4 4 4 4 4 3 3 3 2 2 2 1 1 1 0 0
4 4 4 4 4 4 4 4 4 4 4 4 4 4 4 4 4 4 5 5 5 5 5 4 4 5 5 4 4 4 4 4 3 3 3 2 2 2 1 1 1 1 0 0
4 3 3 3 3 3 3 3 3 3 4 4 4 3 3 4 4 4 4 4 4 4 4 4 4 4 4 4 4 4 3 3 3 3 2 2 2 1 1 1 1 0 0 -0
3 3 3 3 3 3 2 2 2 3 3 3 3 3 3 3 4 4 4 4 4 4 4 4 4 4 4 4 3 3 3 3 3 2 2 2 1 1 1 0 0 0 -0 -0
2 2 2 2 2 2 2 2 2 2 2 2 3 3 3 3 3 4 4 4 3 4 4 4 4 4 3 3 3 3 3 2 2 2 2 1 1 1 0 0 -0 -0 -0 -1
2 2 2 2 2 2 2 2 2 2 2 2 2 2 3 3 3 3 3 3 3 3 3 3 3 3 3 3 3 2 2 2 2 1 1 1 1 0 -0 -0 -1 -1 -1 -1
2 2 2 2 1 1 1 2 2 2 2 2 2 2 2 3 3 3 3 3 3 3 3 3 3 3 2 2 2 2 2 2 1 1 1 0 0 -0 -1 -1 -1 -1 -1 -2
2 2 2 2 1 1 1 1 1 1 2 2 2 2 2 2 2 2 2 2 3 3 3 2 2 2 2 2 2 2 1 1 1 1 0 -0 -0 -1 -1 -1 -2 -2 -2 -2
1 1 1 1 1 1 1 1 1 1 1 1 1 1 2 2 2 2 2 2 2 2 2 2 2 2 2 2 1 1 1 1 1 0 -0 -0 -1 -1 -1 -1 -2 -2 -2 -2
1 1 1 1 1 1 1 1 1 1 1 1 1 1 1 2 2 2 2 2 2 2 1 1 1 1 1 1 1 1 1 0 0 -0 -1 -1 -1 -1 -1 -2 -2 -2 -2 -3
0 0 0 0 0 0 0 1 1 1 1 1 1 1 1 1 1 1 1 1 1 1 1 1 1 1 1 1 0 0 0 -0 -0 -1 -1 -1 -1 -2 -2 -2 -2 -3 -3 -3
-0 -0 -0 -0 -0 -0 -0 0 0 0 0 0 1 1 1 1 1 1 1 1 1 1 1 1 1 0 0 0 0 -0 -0 -0 -1 -1 -1 -2 -2 -2 -2 -2 -3 -3 -3 -3
-0 -0 -0 -0 -1 -1 -1 -0 -0 -0 0 0 0 1 0 0 0 0 0 0 0 0 0 0 0 0 -0 -0 -0 -1 -1 -1 -1 -1 -2 -2 -2 -2 -3 -3 -3 -3 -3 -4
-1 -1 -1 -1 -1 -1 -1 -1 -1 -1 -1 -0 -0 0 0 -0 -0 -0 -0 -0 -0 -0 -0 -0 -0 -0 -1 -1 -1 -1 -1 -1 -2 -2 -2 -2 -3 -3 -3 -3 -3 -3 -4 -4
-1 -1 -1 -1 -1 -1 -1 -1 -1 -1 -1 -1 -1 -0 -0 -0 -1 -1 -1 -1 -1 -1 -1 -1 -1 -1 -1 -1 -1 -2 -2 -2 -2 -2 -2 -3 -3 -3 -3 -3 -3 -4 -4 -4
Wind_Speed
11 11 9 12 14 11 14 13 12 13 14 20 13 11 11 10 9 8 8 8 8 8 7 6 6 5 5 5 4 3 3 3 3 2 2 2 1 1 1 1 1 1 1 1
8 8 10 15 17 17 17 15 18 19 22 18 11 8 9 10 9 10 10 9 9 8 8 7 7 6 5 5 4 3 4 4 3 3 3 3 2 2 2 1 1 1 1 2
8 7 8 12 12 13 9 9 10 16 16 10 8 8 9 9 9 10 10 9 9 9 9 8 8 7 7 6 4 4 4 4 3 3 3 3 2 2 2 2 1 1 1 1
5 5 9 8 3 7 9 11 13 13 12 9 10 10 9 9 9 10 9 8 8 8 8 7 6 6 5 4 5 5 5 5 4 4 4 3 3 3 3 2 2 2 2 2
3 6 10 10 5 5 6 9 10 14 14 11 7 7 8 7 7 9 9 8 8 7 7 6 6 6 5 5 5 6 6 6 5 5 5 4 4 4 3 3 2 2 2 2
4 5 8 8 2 3 1 7 5 7 9 7 2 4 7 6 5 7 7 6 6 5 5 5 6 6 6 7 7 8 8 7 6 6 6 6 5 4 3 3 3 2 2 2
9 9 10 9 3 3 2 6 2 4 6 5 6 8 8 7 6 7 7 7 5 5 5 6 6 7 8 7 9 8 6 5 5 6 6 5 4 3 3 3 2 2 2 1
7 9 11 6 6 7 9 5 4 5 6 7 9 11 10 9 8 8 7 7 5 5 6 5 6 7 8 9 8 6 6 6 6 6 5 5 5 4 4 4 3 3 2 1
11 12 7 5 9 8 5 7 8 7 8 8 9 10 11 10 10 9 8 7 5 6 6 5 6 8 10 9 6 6 7 7 6 6 5 5 5 5 4 4 4 3 3 3
10 14 13 12 12 12 11 11 12 11 11 9 11 12 12 11 10 9 8 8 6 6 7 7 7 8 10 7 7 8 8 7 6 6 6 5 5 5 5 5 5 4 4 4
14 14 12 13 13 14 14 13 13 12 11 12 12 13 13 12 11 10 9 8 7 7 8 9 7 8 8 7 8 8 8 8 7 7 7 6 5 5 5 5 6 6 5 4
17 13 11 13 11 10 12 13 13 13 13 12 12 13 13 12 11 9 9 8 8 8 9 9 7 8 7 8 9 9 8 8 7 6 6 6 5 3 6 6 8 8 7 6
21 17 16 16 15 14 14 14 14 14 14 15 13 12 12 12 10 9 9 9 10 10 9 8 8 8 7 7 9 10 10 9 7 7 7 7 6 6 5 4 6 7 8 8
16 15 16 17 18 16 15 15 15 14 13 13 12 11 10 10 10 10 11 10 9 8 8 8 8 9 8 8 9 10 9 9 9 8 7 7 7 7 6 5 4 3 5 7
15 14 16 15 15 14 13 12 13 13 12 11 10 10 10 10 11 12 10 8 7 7 8 8 8 9 6 8 9 9 8 7 7 7 7 7 6 6 6 6 5 4 2 3
12 12 13 13 15 15 13 12 12 14 12 11 11 11 10 10 10 10 8 6 7 9 9 9 10 8 7 8 9 8 7 10 9 7 7 7 7 6 6 6 6 5 5 4
11 12 12 13 14 14 12 12 13 13 12 12 12 11 9 8 8 9 8 8 9 9 8 8 9 7 7 9 9 7 7 8 11 8 7 8 7 7 7 6 6 6 5 6
11 13 12 12 13 14 13 12 11 12 11 11 10 8 8 8 10 10 8 6 6 6 7 8 7 6 7 8 8 7 7 7 7 7 7 7 7 7 7 6 7 6 4 5
9 10 11 11 11 11 11 11 11 11 10 9 8 9 9 9 9 8 6 5 6 8 7 6 8 7 7 9 9 7 7 8 7 7 6 9 8 6 7 7 6 6 6 5
9 9 10 10 10 9 10 10 10 10 9 7 7 8 8 8 7 6 6 7 7 6 5 5 6 6 7 8 9 7 8 8 8 7 7 7 7 7 7 7 7 6 6 6
10 10 10 10 10 10 9 9 9 10 9 7 7 8 8 7 5 5 5 7 6 5 5 6 5 5 6 7 9 7 7 8 8 8 8 7 7 7 7 7 7 7 7 6
9 10 11 10 10 11 9 8 8 9 9 7 7 7 6 6 5 5 6 6 5 5 4 4 4 6 8 8 7 7 7 7 7 7 7 7 7 7 7 7 7 7 6 6
10 10 11 11 10 11 10 8 8 7 8 8 7 7 7 6 4 5 6 4 3 6 5 5 6 9 10 7 6 7 8 8 7 7 7 7 7 7 7 8 7 7 6 6
11 11 11 10 9 9 10 10 8 7 8 8 7 7 6 5 5 5 4 5 6 6 5 6 9 10 10 6 6 7 7 7 7 7 7 6 6 6 6 7 6 6 6 7
11 11 10 9 9 9 9 9 8 8 7 6 7 6 5 5 5 4 4 5 6 6 4 6 9 9 7 5 6 6 6 7 7 7 7 6 6 6 6 6 6 6 6 6
11 10 10 10 9 9 8 7 7 7 6 6 6 5 4 3 4 4 3 4 5 5 4 3 5 6 5 5 6 6 6 6 7 7 6 6 6 6 6 6 7 6 6 6
10 9 8 8 8 8 7 7 7 7 6 6 6 5 4 3 3 4 4 3 3 3 3 3 4 4 4 5 5 5 5 5 5 6 6 6 6 6 6 7 6 5 5 5
Wind_Direction
256 262 257 254 251 230 224 227 237 255 259 270 275 276 280 278 276 270 266 260 250 245 243 239 238 238 237 240 235 216 199 203 210 203 189 186 183 182 165 149 148 138 124 124
275 265 264 268 257 241 239 238 244 260 271 271 273 267 270 275 273 271 267 262 255 248 243 238 234 232 230 233 228 210 207 213 207 190 185 186 190 177 155 150 139 139 149 143
277 296 305 273 247 223 220 219 217 242 254 274 284 276 271 272 271 266 266 262 254 247 240 237 232 224 223 224 212 204 213 216 207 195 189 192 189 173 175 176 161 163 171 169
285 321 262 252 212 199 224 245 226 241 257 263 261 274 274 262 257 266 266 261 257 249 241 235 225 218 215 207 200 203 209 212 207 196 193 191 185 192 198 183 179 189 197 194
259 277 278 289 260 198 215 272 234 234 254 269 286 307 292 261 244 252 257 256 255 246 236 227 219 208 195 203 203 205 211 210 205 196 192 189 193 198 194 180 183 188 191 187
223 251 260 261 255 186 151 286 258 215 251 267 296 304 285 285 277 271 264 260 261 251 231 224 216 189 190 205 207 214 214 210 200 193 191 193 196 192 182 175 186 183 189 191
229 246 265 259 239 133 211 257 272 213 242 235 225 244 272 292 287 272 268 265 259 245 231 227 202 184 200 208 217 218 206 196 192 191 192 191 186 181 173 173 178 185 198 219
207 231 254 229 158 197 232 268 275 260 252 248 255 270 280 282 279 278 276 272 260 245 242 230 197 192 207 219 219 198 190 193 192 189 189 183 176 178 173 171 178 192 195 232
212 230 255 212 220 243 259 270 273 271 268 265 269 273 277 278 274 270 265 264 256 242 248 240 210 201 216 224 198 184 188 193 192 186 185 177 176 177 172 174 182 195 197 219
255 260 262 262 260 266 261 258 266 268 271 268 267 272 274 275 272 265 260 255 251 242 244 247 227 217 224 218 188 183 191 193 187 184 185 182 181 181 182 186 190 196 205 218
257 267 280 268 257 259 264 265 267 269 267 263 265 269 269 271 268 261 258 254 243 237 241 247 236 226 223 206 187 191 194 194 189 187 186 188 191 194 195 200 193 194 206 208
257 254 254 270 271 268 268 270 270 273 277 270 257 263 266 266 263 256 252 248 244 242 241 243 235 232 223 203 192 191 196 197 194 189 186 186 187 200 214 209 212 215 214 210
256 266 266 272 277 276 274 274 271 269 270 274 269 261 262 264 263 255 249 241 240 241 239 236 231 231 223 201 195 197 201 198 191 188 188 187 187 191 200 210 215 220 222 225
258 267 272 273 276 278 275 273 273 272 267 264 267 265 261 261 261 255 250 245 240 239 237 232 230 233 221 198 196 202 203 199 192 190 189 190 192 192 190 192 201 217 221 222
261 257 262 272 277 280 281 279 279 277 275 271 265 261 259 257 256 255 252 243 236 234 234 228 230 237 215 195 197 201 200 198 193 188 187 187 187 186 189 193 200 202 197 214
273 272 269 271 274 278 281 279 276 277 276 272 268 262 256 254 255 256 250 231 226 234 234 228 231 231 205 195 197 201 204 200 189 185 184 185 186 189 194 197 199 200 205 206
278 280 279 281 280 281 280 276 274 275 275 270 266 263 260 257 257 254 250 236 231 237 234 228 232 222 198 194 194 197 196 196 189 187 190 190 191 195 197 198 202 207 211 206
264 268 272 273 278 284 285 281 277 276 272 268 266 261 254 249 249 250 249 243 241 248 243 233 227 213 200 196 194 192 189 188 189 192 192 192 194 194 195 199 204 206 206 208
284 283 287 284 280 282 283 284 283 279 277 271 262 257 252 250 248 247 239 229 233 248 247 228 218 208 205 201 191 188 186 187 190 191 190 195 196 194 196 199 203 204 199 197
296 296 295 292 289 285 285 286 287 287 281 271 262 260 259 256 245 236 226 232 233 235 230 219 213 210 208 201 190 188 188 189 191 190 189 192 194 196 198 200 201 202 201 202
298 298 295 293 294 292 288 287 287 285 282 269 255 253 255 253 236 223 227 250 251 230 226 222 214 208 201 196 189 188 189 190 191 191 192 195 196 197 200 200 202 203 203 204
293 292 292 292 294 297 295 290 284 282 280 271 261 254 252 250 236 233 235 241 245 228 221 219 215 210 203 195 190 189 190 191 192 192 193 195 197 199 201 202 203 204 204 202
288 287 289 290 290 292 294 290 283 279 273 266 260 253 248 245 231 232 256 247 233 225 219 222 221 214 205 196 191 191 191 192 194 196 197 198 199 199 200 200 201 201 200 200
283 285 285 284 284 287 289 288 284 276 266 262 257 247 239 242 246 235 239 239 235 233 231 225 219 213 203 194 191 193 193 194 196 196 196 196 197 197 197 197 199 199 197 195
277 279 280 282 282 281 278 279 283 279 272 268 264 255 242 229 232 241 235 235 234 231 231 223 215 208 196 190 193 195 195 196 195 192 193 195 196 197 196 195 196 195 194 196
272 273 272 268 268 272 273 273 273 273 269 269 271 261 249 239 232 231 229 229 227 221 218 213 200 194 190 193 195 195 196 197 198 196 193 193 195 194 193 193 191 194 195 195
270 268 269 269 266 259 257 257 261 264 257 253 262 260 245 237 231 226 220 218 216 211 208 200 190 188 189 191 192 193 193 193 190 188 187 189 190 192 192 190 191 190 187 186
Height
1503 1499 1499 1496 1493 1493 1494 1491 1490 1474 1469 1453 1452 1452 1449 1447 1445 1444 1443 1442 1441 1441 1440 1441 1441 1441 1441 1440 1441 1441 1441 1441 1441 1441 1441 1442 1442 1442 1443 1443 1443 1444 1444 1445
1500 1495 1494 1489 1482 1482 1482 1480 1476 1470 1461 1448 1448 1448 1445 1443 1442 1440 1438 1437 1437 1436 1436 1436 1436 1437 1437 1437 1437 1438 1438 1438 1438 1439 1439 1439 1439 1440 1440 1440 1441 1441 1442 1442
1499 1495 1491 1480 1467 1469 1470 1466 1467 1464 1453 1446 1447 1444 1442 1440 1438 1436 1434 1434 1433 1432 1432 1432 1432 1433 1433 1433 1434 1434 1435 1435 1436 1436 1436 1437 1437 1437 1437 1438 1438 1439 1439 1440
1500 1497 1489 1463 1457 1458 1460 1456 1455 1451 1446 1444 1443 1440 1438 1436 1434 1432 1431 1430 1429 1428 1428 1428 1428 1429 1429 1430 1430 1431 1431 1432 1432 1433 1433 1434 1434 1434 1434 1435 1436 1436 1437 1438
1500 1496 1481 1461 1455 1456 1457 1452 1445 1445 1442 1440 1439 1438 1433 1432 1431 1429 1428 1426 1425 1424 1424 1424 1424 1425 1425 1426 1426 1427 1428 1428 1429 1430 1430 1430 1431 1431 1432 1432 1433 1434 1434 1435
1498 1494 1480 1457 1452 1450 1453 1450 1439 1439 1439 1438 1438 1440 1432 1429 1427 1426 1424 1423 1422 1421 1420 1420 1420 1420 1421 1421 1422 1423 1424 1425 1426 1426 1427 1427 1428 1428 1429 1429 1430 1431 1431 1432
1492 1488 1471 1453 1450 1451 1456 1445 1437 1435 1435 1435 1435 1433 1429 1426 1424 1423 1421 1420 1419 1417 1416 1416 1416 1416 1416 1417 1417 1419 1420 1421 1421 1422 1423 1424 1424 1425 1426 1427 1427 1428 1429 1429
1484 1482 1466 1445 1448 1448 1442 1435 1434 1432 1432 1431 1429 1427 1425 1422 1420 1419 1417 1416 1415 1413 1412 1412 1412 1412 1411 1412 1414 1415 1416 1416 1417 1418 1419 1420 1421 1421 1422 1423 1424 1425 1425 1426
1465 1455 1443 1440 1438 1435 1434 1433 1431 1429 1428 1426 1424 1422 1420 1417 1415 1414 1413 1411 1410 1409 1408 1407 1407 1407 1407 1408 1409 1410 1411 1411 1413 1414 1415 1416 1417 1418 1419 1420 1421 1421 1422 1422
1456 1443 1438 1435 1433 1431 1430 1428 1426 1425 1423 1421 1418 1416 1413 1411 1409 1408 1406 1406 1405 1404 1403 1402 1402 1402 1402 1403 1404 1405 1405 1407 1408 1409 1411 1412 1413 1414 1415 1416 1417 1418 1418 1419
1446 1436 1433 1427 1426 1425 1424 1422 1420 1418 1417 1414 1412 1409 1407 1404 1402 1401 1400 1399 1398 1398 1397 1396 1396 1396 1397 1397 1398 1399 1400 1402 1403 1405 1406 1408 1409 1410 1411 1413 1414 1414 1415 1416
1432 1427 1427 1421 1420 1419 1417 1415 1413 1411 1407 1406 1404 1401 1399 1396 1395 1394 1393 1392 1391 1391 1391 1390 1390 1390 1391 1392 1392 1393 1394 1396 1398 1399 1401 1403 1404 1406 1407 1409 1410 1410 1411 1412
1421 1420 1419 1415 1413 1411 1409 1406 1404 1402 1400 1397 1394 1393 1391 1389 1387 1386 1385 1384 1384 1384 1384 1384 1384 1384 1385 1386 1387 1387 1389 1390 1392 1394 1396 1397 1399 1400 1402 1404 1405 1406 1407 1407
1415 1413 1409 1406 1404 1402 1400 1397 1395 1393 1390 1388 1386 1384 1383 1381 1380 1379 1377 1377 1377 1377 1377 1378 1378 1378 1379 1380 1381 1382 1383 1385 1386 1388 1390 1392 1394 1395 1397 1398 1399 1400 1402 1403
1405 1404 1401 1398 1395 1393 1391 1389 1386 1383 1381 1379 1378 1376 1375 1373 1372 1371 1371 1371 1371 1370 1370 1371 1371 1372 1374 1374 1375 1376 1377 1379 1380 1382 1384 1386 1388 1390 1392 1393 1394 1395 1397 1398
1396 1394 1392 1390 1387 1385 1383 1380 1378 1375 1373 1371 1370 1368 1367 1366 1365 1364 1364 1364 1364 1363 1364 1364 1365 1366 1367 1368 1369 1370 1371 1373 1375 1377 1379 1381 1383 1384 1386 1387 1389 1390 1391 1393
1390 1386 1384 1382 1379 1376 1375 1372 1370 1367 1365 1363 1361 1360 1360 1358 1357 1356 1357 1357 1357 1357 1357 1358 1359 1360 1361 1362 1363 1364 1366 1367 1369 1371 1372 1374 1376 1378 1380 1382 1383 1385 1386 1388
1384 1381 1379 1376 1373 1370 1367 1364 1362 1359 1357 1355 1354 1353 1352 1351 1350 1349 1350 1350 1350 1350 1351 1352 1353 1354 1354 1356 1357 1358 1360 1361 1363 1365 1367 1369 1371 1373 1375 1376 1378 1380 1381 1383
1377 1375 1373 1370 1367 1364 1361 1358 1355 1353 1350 1349 1347 1346 1345 1344 1344 1344 1344 1344 1343 1343 1344 1346 1347 1347 1348 1350 1351 1352 1354 1355 1357 1359 1361 1363 1365 1367 1369 1371 1372 1374 1376 1377
1372 1370 1367 1364 1361 1358 1355 1352 1349 1346 1344 1342 1341 1340 1339 1338 1338 1338 1338 1338 1338 1339 1339 1340 1340 1341 1342 1344 1345 1346 1348 1350 1351 1353 1355 1357 1359 1361 1363 1365 1367 1368 1370 1371
1367 1364 1361 1358 1355 1352 1349 1346 1343 1340 1338 1336 1335 1334 1333 1333 1333 1333 1332 1332 1333 1334 1334 1334 1335 1335 1336 1338 1339 1341 1343 1344 1346 1348 1350 1352 1353 1355 1357 1359 1360 1362 1364 1366
1361 1359 1356 1353 1349 1346 1343 1341 1338 1335 1333 1331 1329 1329 1328 1327 1327 1327 1327 1327 1327 1328 1328 1328 1329 1330 1331 1332 1333 1335 1337 1339 1340 1342 1344 1346 1348 1349 1351 1353 1354 1356 1358 1360
1356 1353 1350 1347 1344 1340 1337 1335 1333 1330 1328 1326 1324 1323 1323 1322 1322 1322 1321 1322 1322 1322 1323 1323 1324 1325 1326 1327 1328 1330 1331 1333 1335 1337 1339 1340 1342 1344 1346 1347 1349 1351 1353 1355
1349 1346 1343 1340 1337 1334 1331 1328 1327 1324 1322 1321 1319 1318 1318 1317 1317 1317 1317 1317 1317 1317 1317 1318 1319 1320 1321 1322 1323 1324 1326 1328 1330 1332 1334 1336 1337 1339 1340 1342 1344 1346 1347 1349
1341 1338 1335 1333 1330 1327 1325 1322 1320 1318 1316 1315 1314 1313 1313 1312 1312 1312 1312 1312 1312 1312 1312 1313 1314 1315 1316 1317 1318 1320 1321 1323 1325 1327 1329 1330 1332 1334 1335 1337 1339 1341 1342 1344
1332 1330 1327 1325 1323 1321 1318 1316 1313 1311 1310 1308 1308 1307 1307 1307 1306 1307 1307 1307 1307 1307 1308 1308 1309 1310 1311 1312 1314 1315 1317 1319 1320 1322 1324 1326 1327 1329 1331 1332 1334 1336 1338 1339
1323 1321 1319 1316 1314 1313 1311 1309 1307 1305 1304 1303 1302 1302 1302 1301 1301 1302 1302 1302 1302 1303 1304 1304 1305 1306 1307 1308 1309 1311 1312 1314 1316 1318 1319 1321 1323 1325 1326 1328 1330 1332 1334 1335